Location: ??????
(41.3164°N, 22.6615°E)
Time: 12:41:41
(UTC+00:00)

CAS-4A - Pass Details

Date: 04 July 2022
Orbit: 521 x 537 km, 43.0° (Epoch: 13 August)

Event Time Altitude Azimuth Distance (km) Brightness Sun altitude
Exits shadow 01:22:59 12° 274° (W) 1,626 ? -14.8°
Maximum altitude 01:26:39 68° 358° (N) 567 ? -14.3°
Drops below altitude 10° 01:30:40 10° 81° (E) 1,764 ? -13.8°
Sets 01:32:55 0° 84° (E) 2,656 ? -13.5°
